| time (UTC) | temp C | wind direction | speed KPH | gust KPH | rain 1hr cm | rain 24hr cm | rain mn cm | humidity % | barometer mb |
| 20260506193511 | 11 | 260 | 3.2 | 16.1 | 0.10 | 0.30 | 0.30 | 89 | 1007.5 |
| 20260506190510 | 12 | 316 | 0.0 | 14.5 | 0.08 | 0.23 | 0.23 | 89 | 1007.1 |
| 20260506183509 | 12 | 246 | 1.6 | 16.1 | 0.05 | 0.20 | 0.20 | 89 | 1006.9 |
| 20260506180514 | 12 | 324 | 1.6 | 11.3 | 0.00 | 0.15 | 0.15 | 88 | 1006.4 |
| 20260506173513 | 12 | 229 | 0.0 | 14.5 | 0.03 | 0.15 | 0.15 | 88 | 1006.0 |
| 20260506170512 | 13 | 223 | 3.2 | 17.7 | 0.03 | 0.15 | 0.15 | 88 | 1005.7 |
| 20260506163511 | 13 | 251 | 4.8 | 19.3 | 0.05 | 0.13 | 0.13 | 87 | 1005.8 |
| 20260506153510 | 13 | 244 | 0.0 | 0.0 | 0.08 | 0.08 | 0.08 | 83 | 1005.9 |
| 20260506150509 | 15 | 247 | 0.0 | 0.0 | 0.00 | 0.00 | 0.00 | 79 | 1005.8 |
| 20260506143513 | 17 | 238 | 1.6 | 19.3 | 0.00 | 0.00 | 0.00 | 68 | 1005.4 |
| 20260506140513 | 17 | 308 | 0.0 | 1.6 | 0.00 | 0.00 | 0.00 | 65 | 1004.9 |
| 20260506130511 | 18 | 319 | 0.0 | 6.4 | 0.00 | 0.00 | 0.00 | 63 | 1004.7 |
| 20260506123511 | 18 | 350 | 0.0 | 6.4 | 0.00 | 0.00 | 0.00 | 64 | 1004.6 |
| 20260506120510 | 18 | 261 | 0.0 | 0.0 | 0.00 | 0.00 | 0.00 | 66 | 1004.6 |
| 20260506103512 | 17 | 116 | 0.0 | 0.0 | 0.00 | 0.00 | 0.00 | 71 | 1005.4 |
| 20260506100512 | 16 | 81 | 0.0 | 0.0 | 0.00 | 0.00 | 0.00 | 73 | 1005.4 |
| 20260506093511 | 16 | 273 | 1.6 | 14.5 | 0.00 | 0.00 | 0.00 | 74 | 1005.4 |
| 20260506090510 | 16 | 309 | 1.6 | 11.3 | 0.00 | 0.00 | 0.00 | 75 | 1005.5 |
| 20260506083510 | 16 | 18 | 0.0 | 6.4 | 0.00 | 0.00 | 0.00 | 77 | 1005.5 |
| 20260506080513 | 15 | 78 | 0.0 | 0.0 | 0.00 | 0.00 | 0.00 | 79 | 1005.2 |
| 20260506073513 | 15 | 38 | 1.6 | 9.7 | 0.00 | 0.00 | 0.00 | 80 | 1004.9 |
| 20260506060510 | 12 | 261 | 0.0 | 0.0 | 0.00 | 0.00 | 0.00 | 88 | 1005.2 |
| 20260506050509 | 11 | 248 | 0.0 | 0.0 | 0.00 | 0.00 | 0.00 | 91 | 1005.4 |
| 20260506040512 | 11 | 248 | 0.0 | 0.0 | 0.00 | 0.00 | 0.00 | 91 | 1005.2 |
| 20260506033512 | 11 | 267 | 0.0 | 0.0 | 0.00 | 0.00 | 0.00 | 91 | 1005.3 |
| 20260506023511 | 12 | 271 | 0.0 | 0.0 | 0.00 | 0.00 | 0.00 | 91 | 1006.0 |
| 20260506020510 | 12 | 238 | 0.0 | 0.0 | 0.00 | 0.00 | 0.00 | 91 | 1005.9 |
| 20260506010513 | 12 | 238 | 0.0 | 0.0 | 0.00 | 0.00 | 0.00 | 90 | 1005.9 |
| 20260506003513 | 12 | 238 | 0.0 | 0.0 | 0.00 | 0.00 | 0.00 | 90 | 1006.0 |
| 20260506000512 | 12 | 238 | 0.0 | 0.0 | 0.00 | 0.00 | 0.00 | 90 | 1006.4 |
| 20260505233511 | 12 | 230 | 0.0 | 0.0 | 0.00 | 0.00 | 0.00 | 90 | 1006.6 |
| 20260505230510 | 13 | 263 | 0.0 | 0.0 | 0.00 | 0.00 | 0.00 | 90 | 1006.7 |
| 20260505223509 | 13 | 307 | 0.0 | 0.0 | 0.00 | 0.00 | 0.00 | 90 | 1006.8 |
| 20260505220513 | 13 | 253 | 0.0 | 0.0 | 0.00 | 0.00 | 0.00 | 90 | 1006.5 |
| 20260505213512 | 13 | 264 | 0.0 | 0.0 | 0.00 | 0.28 | 0.28 | 89 | 1006.6 |
| 20260505210512 | 13 | 257 | 0.0 | 0.0 | 0.00 | 0.28 | 0.28 | 89 | 1006.5 |
| 20260505203511 | 14 | 272 | 0.0 | 0.0 | 0.03 | 0.28 | 0.28 | 88 | 1006.6 |
| 20260505200510 | 14 | 248 | 0.0 | 0.0 | 0.05 | 0.28 | 0.28 | 87 | 1006.5 |